EHI
0 0 0 0 0 0 0 0 0 0 0 0 0 0 0 0 0 0 0 1 2 2 1 0 0 0 1 1 0 0 0 0 0 0 0 0 0 0 0 0 0 0 0
0 0 0 0 0 0 0 0 0 0 0 0 0 0 0 0 0 0 0 0 1 1 0 0 0 0 1 2 1 0 0 0 0 0 0 0 0 0 0 0 0 0 0
0 0 0 0 0 0 0 0 0 0 0 0 0 0 0 0 0 0 0 0 0 0 0 0 0 0 1 2 2 1 0 0 0 0 0 0 0 1 0 0 0 0 0
0 0 0 0 0 0 0 0 0 0 0 0 0 0 0 0 0 0 0 0 0 0 0 0 1 0 0 1 2 1 0 0 0 0 0 0 0 0 0 0 0 0 0
0 0 0 0 0 0 0 0 0 0 0 0 0 0 0 0 0 0 0 0 0 0 0 0 0 0 0 0 1 1 0 0 0 0 0 0 0 0 0 0 0 0 0
0 0 0 0 0 0 0 0 0 0 0 0 0 0 0 0 0 0 0 0 0 0 0 0 0 0 0 0 1 0 0 0 0 0 0 0 0 0 0 0 0 0 0
0 0 0 0 0 0 0 0 0 0 0 0 0 0 0 0 0 0 0 0 0 0 0 0 0 0 0 0 0 0 0 0 0 0 0 0 0 1 0 0 0 0 0
0 0 0 0 0 0 0 0 0 0 0 0 0 0 0 0 0 0 0 0 0 0 0 0 0 0 0 0 0 0 0 0 0 0 0 0 0 0 0 0 0 0 0
0 0 0 0 0 0 0 0 0 0 0 0 0 0 0 0 0 0 0 0 0 0 0 0 0 0 0 0 0 0 0 0 0 0 0 0 0 0 0 0 0 0 0
0 0 0 0 0 0 0 0 0 0 0 0 0 0 0 0 0 0 0 0 0 0 0 0 0 0 0 0 0 0 0 0 0 0 0 0 0 0 0 0 0 0 0
0 0 0 0 0 0 0 0 0 0 0 0 0 0 0 0 0 0 0 0 0 0 0 0 0 0 0 0 0 0 0 0 0 0 0 0 0 0 0 0 0 0 0
0 0 0 0 0 0 0 0 0 0 0 0 0 0 0 0 0 0 0 0 0 0 0 0 0 0 0 0 0 0 0 0 0 0 0 0 0 0 0 0 0 0 0
0 0 0 0 0 0 0 0 0 0 0 0 0 0 0 0 0 0 0 0 0 0 0 0 0 0 0 0 0 0 0 0 0 0 0 0 0 0 0 0 0 0 0
0 0 0 0 0 0 0 0 0 0 0 0 0 0 0 0 0 0 0 0 0 0 0 0 0 0 0 0 0 0 0 0 0 0 0 0 0 0 0 0 0 0 0
0 0 0 0 0 0 1 1 1 0 0 0 0 0 0 0 0 0 0 0 0 0 0 0 0 0 0 0 0 0 0 0 0 0 0 0 0 0 0 0 0 0 0
0 0 0 0 0 1 2 2 2 1 0 0 0 0 0 0 0 0 0 0 0 0 0 0 0 0 0 0 0 0 0 0 0 0 0 0 0 0 0 0 0 0 0
0 0 0 0 0 1 2 3 3 2 1 0 0 0 0 0 0 0 0 0 0 0 0 0 0 0 0 0 0 0 0 0 0 0 0 0 0 0 0 0 0 0 0
0 0 0 0 0 0 2 3 3 3 2 1 0 0 0 0 0 0 0 0 0 0 0 0 0 0 0 0 0 0 0 0 0 0 0 0 0 0 0 0 0 0 0
1 1 1 1 1 1 2 3 3 3 2 1 0 0 0 0 0 0 0 0 0 0 0 0 0 0 0 0 0 0 0 0 0 0 0 0 0 0 0 0 0 0 0
2 2 2 2 2 2 3 3 3 3 2 1 0 0 0 0 0 0 0 0 0 0 0 0 0 0 0 0 0 0 0 0 0 0 0 0 0 0 0 0 0 0 0
3 3 3 3 3 2 2 2 2 2 1 0 0 0 0 0 0 0 0 0 0 0 0 0 0 0 0 0 0 0 0 0 0 0 0 0 0 0 0 0 0 0 0
5 4 3 2 1 1 0 1 1 1 0 0 0 0 0 0 0 0 0 0 0 0 0 0 0 0 0 0 0 0 0 0 0 0 0 0 0 0 0 0 0 0 0
8 4 1 1 0 0 0 0 0 0 0 0 0 0 0 0 0 0 0 0 0 0 0 0 0 0 0 0 0 0 0 0 0 0 0 0 0 0 0 0 0 0 0
9 5 2 0 0 0 0 0 0 0 0 0 0 0 0 0 0 0 0 0 0 0 0 0 0 0 0 0 0 0 0 0 0 0 0 0 0 0 0 0 0 0 0
5 5 3 1 0 0 0 0 0 0 0 0 0 0 0 0 0 0 0 0 0 0 0 0 0 0 0 0 0 0 0 0 0 0 0 0 0 0 0 0 0 0 0
3 4 2 1 0 0 0 0 0 0 0 0 0 0 0 0 0 0 0 0 0 0 0 0 0 0 0 0 0 0 0 0 0 0 0 0 0 0 0 0 0 0 0
Wind_Speed
4 3 2 2 2 2 2 2 1 1 1 1 1 3 3 4 4 3 2 8 10 10 11 12 12 12 12 12 12 11 11 11 11 10 10 10 10 10 10 10 10 10 10
4 4 3 2 2 2 2 2 2 1 1 1 2 2 3 3 4 3 3 5 9 10 10 11 11 12 12 12 12 12 12 12 11 11 10 10 10 10 10 10 10 10 9
5 4 3 2 2 2 2 2 2 2 1 1 1 2 2 3 4 3 3 3 3 7 9 9 9 11 12 12 12 12 12 11 12 11 11 10 10 9 9 9 10 10 9
5 4 3 2 2 2 2 2 2 2 1 1 0 0 1 2 3 3 3 3 3 3 6 9 9 9 11 11 12 12 12 11 11 12 11 11 10 10 9 9 9 10 9
5 4 3 2 3 3 2 2 2 2 1 0 0 0 1 1 2 2 3 3 3 3 3 5 7 8 10 11 12 12 12 12 11 12 12 12 12 11 10 10 10 10 10
5 5 3 3 4 3 2 2 2 2 1 0 0 1 1 0 1 1 2 2 3 3 3 3 3 4 8 9 10 11 12 12 12 12 12 13 13 12 11 11 11 10 10
5 5 4 3 3 3 3 2 2 2 1 1 2 3 3 2 1 0 1 1 1 2 3 3 2 2 2 6 7 8 9 10 11 11 12 11 12 12 12 12 11 11 12
5 5 5 4 3 3 3 2 2 2 1 2 2 3 3 4 3 2 0 1 2 1 2 3 3 3 2 1 3 6 7 8 9 9 10 10 11 11 11 12 12 12 12
5 5 5 4 4 3 3 2 3 3 2 2 1 3 3 2 2 3 2 1 0 1 1 1 2 3 3 2 2 3 5 6 7 8 8 8 8 9 11 12 13 13 13
5 5 5 5 4 3 3 2 3 3 3 1 2 1 2 3 3 1 3 2 2 1 1 1 2 2 2 2 2 3 4 4 4 5 5 6 6 7 9 10 12 13 13
4 5 5 5 4 3 4 3 3 3 2 2 1 1 2 2 2 3 1 3 3 2 1 1 1 2 2 3 2 3 4 4 3 3 3 4 4 5 6 8 10 12 13
2 4 5 5 5 4 4 3 3 4 3 3 2 2 2 2 1 2 2 1 2 3 2 1 1 1 2 2 3 5 5 4 4 4 4 4 4 5 6 7 8 9 11
3 4 4 5 4 4 4 4 4 3 3 3 2 2 1 1 2 3 3 1 1 3 3 2 1 1 2 2 2 5 5 5 5 5 5 5 5 5 6 7 8 8 8
5 6 6 6 6 5 5 4 3 3 3 3 3 2 1 1 1 2 3 3 1 2 3 3 2 1 1 2 4 6 3 6 6 6 7 7 7 7 7 7 7 7 7
5 6 7 6 6 6 5 5 3 3 3 3 2 2 1 1 1 1 2 3 4 1 2 3 2 2 1 2 4 3 3 6 8 8 9 9 9 9 9 8 8 8 8
6 7 7 7 6 6 6 5 4 3 4 3 3 3 2 1 1 1 2 2 3 4 3 3 3 2 2 2 5 4 5 8 9 9 10 10 11 11 11 11 10 10 10
7 8 8 8 7 6 6 5 5 5 5 4 3 4 4 3 2 1 1 1 2 3 3 3 2 2 2 3 3 3 4 4 5 10 11 11 12 13 12 12 12 12 11
7 8 8 8 8 8 7 7 7 6 6 6 5 5 5 4 4 3 2 2 2 3 3 4 3 2 3 4 4 4 4 4 4 8 10 11 11 12 12 13 13 13 13
7 7 8 9 8 8 8 8 7 7 7 7 7 6 6 5 5 4 4 3 3 3 3 3 4 3 3 3 3 3 4 3 5 6 8 9 10 10 11 12 13 13 13
7 8 8 8 8 8 8 8 7 7 7 6 7 7 7 7 7 6 5 5 4 3 3 3 4 3 3 3 2 3 4 3 4 4 5 6 7 9 10 11 12 13 14
8 8 7 7 7 7 8 8 8 8 7 7 7 7 7 9 10 8 6 6 5 4 4 4 4 3 3 3 3 3 4 4 4 4 3 4 3 4 5 8 10 13 14
7 7 8 7 7 6 8 11 9 7 7 7 7 6 7 8 10 13 13 11 10 7 6 5 5 5 6 5 4 4 3 3 4 3 3 4 3 5 5 5 10 13 14
7 7 7 7 7 7 9 10 11 7 6 7 7 6 6 6 7 6 9 11 12 14 13 8 8 9 7 7 5 5 5 6 7 5 2 5 4 6 6 7 13 15 15
6 6 7 7 7 8 10 11 11 8 7 7 7 7 7 6 5 5 5 6 7 8 10 9 9 10 10 8 8 8 7 6 6 5 5 5 5 6 7 6 12 15 16
5 6 6 7 7 6 9 10 9 4 4 6 5 5 6 6 7 8 5 6 7 8 10 13 14 14 15 14 9 4 4 5 7 6 5 5 5 6 5 7 10 14 16
4 4 4 4 5 5 7 10 9 3 4 4 3 4 7 7 7 7 6 6 8 8 6 7 8 11 11 12 14 10 8 8 6 6 5 6 5 4 5 5 6 6 7
Wind_Direction
153 151 154 151 150 140 141 137 131 129 114 105 120 134 148 147 162 170 196 197 193 189 191 187 184 185 184 184 182 181 179 178 174 170 168 168 167 166 166 164 165 163 161
149 145 144 145 149 148 145 144 144 141 141 135 128 138 159 160 170 176 187 203 204 202 201 196 193 192 191 192 192 190 189 186 181 177 175 175 175 175 174 173 172 169 168
143 142 138 139 153 141 129 111 102 97 101 103 122 145 158 173 178 183 187 194 207 211 209 205 202 198 196 197 197 197 196 192 188 186 184 183 182 182 182 180 179 178 176
138 132 130 134 136 121 116 114 100 92 76 79 99 194 164 167 175 183 183 189 196 209 215 211 208 205 203 203 202 201 199 198 194 192 191 191 188 187 188 189 188 187 186
131 124 125 125 120 108 107 127 97 108 98 70 224 196 186 175 180 173 175 187 192 195 202 216 207 205 208 209 208 207 205 205 201 198 198 199 197 194 194 194 194 194 195
130 123 120 120 113 104 99 98 100 87 112 142 34 50 7 216 167 165 182 180 190 191 196 201 201 214 215 215 213 212 213 212 208 208 208 206 204 201 201 201 201 201 201
132 125 122 120 113 114 124 117 99 74 47 56 61 26 2 3 13 202 174 153 174 183 179 187 188 198 222 223 222 219 220 219 215 215 216 215 211 206 206 206 206 207 207
142 137 135 135 126 115 105 94 94 89 34 58 105 86 30 359 350 1 329 173 164 161 180 183 186 195 205 199 222 223 223 223 223 223 221 219 218 215 215 214 212 214 215
146 140 141 136 134 128 131 122 112 113 92 23 88 133 134 196 309 333 340 347 133 163 202 205 199 202 198 190 215 235 230 225 230 233 226 220 220 220 221 222 221 220 220
146 144 143 143 141 134 138 136 114 112 113 71 11 45 136 153 141 349 331 335 322 247 225 209 198 203 192 175 190 200 211 214 225 237 235 231 226 225 228 230 233 231 226
153 150 146 143 144 140 143 131 113 107 112 120 106 72 62 60 92 128 289 322 333 316 282 234 202 197 187 179 185 198 197 199 209 232 244 249 247 242 241 243 244 242 236
160 160 151 149 152 148 148 145 134 125 122 116 110 107 120 114 125 129 152 277 300 302 312 302 248 203 184 178 196 191 192 199 212 229 241 249 258 264 262 258 257 255 250
180 186 163 160 160 161 156 147 141 142 139 132 133 130 131 147 156 143 134 159 323 311 330 325 285 224 192 175 195 193 200 208 221 232 241 249 255 262 267 269 267 265 264
189 184 175 174 172 166 161 152 147 160 149 149 145 142 135 143 144 152 152 139 71 340 338 312 318 285 230 194 213 199 213 221 229 236 243 249 252 256 259 263 266 267 266
189 183 179 177 174 170 165 156 163 176 162 166 167 160 158 185 151 150 150 148 144 150 292 295 311 309 276 233 229 212 224 235 236 240 246 250 252 253 255 257 258 260 261
188 177 180 178 175 175 172 165 169 180 172 181 180 173 181 194 168 144 146 148 147 156 211 262 261 269 267 251 230 222 233 243 245 248 251 253 253 252 251 251 252 254 256
183 181 181 179 179 181 178 175 184 182 185 197 195 190 206 202 195 194 159 145 154 152 196 269 271 273 260 266 268 254 249 246 253 256 259 259 258 256 253 252 252 252 252
184 182 179 180 186 187 184 184 193 191 193 200 203 196 210 206 206 207 192 194 195 187 184 239 275 280 267 261 259 262 259 249 247 258 260 261 262 262 257 253 251 252 252
184 183 180 185 192 192 192 195 195 197 199 204 203 201 207 199 210 211 207 210 215 209 190 209 253 261 271 273 277 278 271 270 266 261 262 262 263 263 259 256 253 252 253
186 189 191 193 194 194 196 199 199 203 204 207 208 208 208 202 208 209 212 214 211 215 215 223 247 260 265 274 261 267 283 272 269 273 270 267 264 266 263 261 258 257 255
196 194 195 199 198 196 202 200 203 206 207 213 216 215 216 214 213 209 209 208 205 212 219 227 243 255 257 260 251 244 255 271 272 254 263 268 268 271 272 267 263 259 256
199 193 197 198 200 209 211 205 202 206 206 213 222 226 229 228 229 227 226 217 203 206 215 221 233 238 248 237 236 234 240 257 276 257 223 260 243 259 260 252 255 255 256
200 197 200 195 199 205 200 203 207 202 207 213 218 222 234 233 228 231 239 239 231 227 218 214 227 237 242 232 224 238 233 230 241 239 205 263 254 258 260 261 257 256 257
197 200 204 203 203 210 207 208 209 204 211 217 215 215 222 235 231 227 236 245 245 242 234 229 233 243 241 235 221 229 239 247 255 248 199 247 258 254 262 257 258 256 257
199 204 201 206 207 216 213 215 211 207 221 228 226 226 224 231 240 236 234 248 260 262 254 241 238 244 247 246 236 230 236 236 257 257 205 216 249 257 259 257 257 254 254
197 198 202 207 207 215 215 214 208 207 225 237 238 238 235 238 246 241 231 238 256 265 267 270 257 256 255 256 245 230 230 237 246 255 226 207 237 236 265 258 251 250 252